sat.trackr.live / text

‹ back to catalog

STARLINK-11679 [DTC]

NORAD 64129 · 2025-111G

PAYLOAD ACTIVE UNKNOWN

§ Identity

Operator
Country
US
Launch date
2025-05-24
Launch site
AFETR
Launch vehicle
Mass (kg)
RCS (m²)

Purposes: comms

External: N2YO · Heavens-Above · Gunter

§ Orbital elements

Epoch: 2026-05-25T04:32:46.098816Z

Period
91.67 min
Inclination
42.9973°
Eccentricity
0.0002952
Mean motion
15.70849434 rev/d
Perigee alt
354.5 km
Apogee alt
358.5 km
Semi-major
6,734.6 km
B*
1.2363e-3
RAAN
232.4578°
Arg perigee
349.5202°
Mean anomaly
10.5603°
Rev number
5,867

§ Raw data

STARLINK-11679 [DTC]1 64129U 25111G   26145.18942244  .00161384  00000+0  12363-2 0  99932 64129  42.9973 232.4578 0002952 349.5202  10.5603 15.70849434 58678

JSON: /api/v1/satellites/64129 · /tle

For live sub-satellite position, see the globe view (requires WebGL).

§ Visibility from observer

Set your observer location to see the next 7 days of passes ≥ 10°. The values pass through the URL so the page stays shareable.

No JS? Fill the form by hand. The geolocation button needs JavaScript.